Location: Moonridge Observatory
(39.2268°N, 77.7914°W)
Time: 16:00:06
(UTC-04:00)

CZ-2C R/B - Visible Passes

Search period start: 23 June 2018 00:00
Search period end: 03 July 2018 00:00
Orbit: 704 x 908 km, 98.2° (Epoch: 22 June)

Date Brightness Start Highest point End Pass type
(mag) Time Alt. Az. Time Alt. Az. Time Alt. Az.
23 Jun 5.3 21:40:03 10° E 21:42:31 13° ENE 21:45:00 10° NE visible
23 Jun 3.3 23:19:34 45° SSE 23:21:31 87° ENE 23:27:18 10° NNW visible
24 Jun 5.5 01:00:37 11° WSW 01:01:57 12° W 01:04:12 10° WNW visible
24 Jun 3.6 22:54:27 33° SE 22:56:48 54° ENE 23:02:22 10° N visible
25 Jun 5.0 00:35:31 19° WSW 00:36:52 21° W 00:41:09 10° NW visible
25 Jun 4.3 22:29:21 22° ESE 22:32:09 34° ENE 22:37:13 10° N visible
26 Jun 4.4 00:10:25 30° SW 00:11:53 34° W 00:17:04 10° NNW visible
26 Jun 4.9 22:04:15 13° ESE 22:07:36 21° ENE 22:11:45 10° NNE visible
26 Jun 3.7 23:45:19 42° SSW 23:46:59 57° W 23:52:37 10° NNW visible
27 Jun 5.3 21:40:35 10° E 21:43:07 13° ENE 21:45:39 10° NNE visible
27 Jun 3.2 23:20:14 45° SSE 23:22:10 89° ENE 23:27:54 10° NNW visible
28 Jun 5.6 01:01:18 11° WSW 01:02:36 12° W 01:04:33 10° WNW visible
28 Jun 3.6 22:55:08 34° SE 22:57:26 55° ENE 23:02:57 10° N visible
29 Jun 5.0 00:36:12 19° WSW 00:37:31 20° W 00:41:39 10° NW visible
29 Jun 4.2 22:30:03 23° ESE 22:32:47 34° ENE 22:37:48 10° N visible
30 Jun 4.4 00:11:07 29° WSW 00:12:32 33° W 00:17:37 10° NNW visible
30 Jun 4.8 22:04:58 14° ESE 22:08:12 22° ENE 22:12:21 10° NNE visible
30 Jun 3.7 23:46:02 42° SSW 23:47:37 55° W 23:53:10 10° NNW visible
01 Jul 5.3 21:41:08 10° E 21:43:43 13° ENE 21:46:15 10° NNE visible
01 Jul 3.2 23:20:57 46° SSE 23:22:48 89° WSW 23:28:26 10° NNW visible
02 Jul 5.6 01:02:01 10° W 01:03:14 11° W 01:04:45 10° WNW visible
02 Jul 3.5 22:55:52 35° SE 22:58:03 57° ENE 23:03:31 10° N visible
